Карточка аэропорта UATT

Внимание!
Информация на этой странице в стадии наполнения.
Если вы не увидели какой-то информации, или заметили неточность - пожалуйста сообщите нам!
Спасибо!
Команда RU-STAFF
Название аэропортаАктобе
Название аэропорта (англ.)Aktobe
Превышение738 ft. (224.9 m.)
Координаты50°14.748', 57°12.402'
Высота перехода10000ft
Эшелон переходаFL120, QNH<733:FL130
Коды ответчика3440-3447, 3540-3547
Зона ОрВДАктобе РПИ (UATT)
Данные METARUATT 010530Z 15001MPS CAVOK M19/M21 Q1022 NOSIG RMK QFE746/0995
Проноз погоды (TAF)UATT 311700Z 3118/0118 15002MPS 9999 SCT011 TXM10/0111Z TNM25/0101Z TEMPO 3118/3124 0400 FZFG VV002 TEMPO 0100/0106 3100 BR SCT007 BECMG 0106/0108 09005MPS
NOTAMshow/hide NOTAM
AWOS   TABLE

Информация о ВПП

ВПП Длина ВПП (м.) Покрытие Курс ВПП Частота ILS
133202Бетон135111.7
313202Бетон315111.7

Диспетчерские позиции




Спутниковое изображение